www.pogodaiklimat.ru

Погода и климат >> Архив погоды >> Сербия >> Нови-Сад


ПОГОДА в Нови-Саде

  • Прогноз погоды в Нови-Саде
  • Монитор погоды в Нови-Саде

АРХИВ ПОГОДЫ в Нови-Саде

Время (UTC), дата Ветер
(напр.,м/с)
 
Видим.   Явления Облачность Т
(С)
Тd
(С)
f
(%)
Тe
(С)
Тes
(С)
Комфортность P
(гПа)
Po
(гПа)
Тmin
(С)
Tmax
(С)
R
(мм)
R24
(мм)
S
(см)
07 13.09 З 3 20 км ясно +18.0 +13.6 75 +18 +22 1030.2 1009.6
08 13.09 20 км ясно +20.4 +14.6 69 1030.2 1019.8
09 13.09 20 км ясно +22.2 +14.7 62 1030.2 1019.8
10 13.09 20 км ясно +24.2 +14.0 53 1029.6 1019.4
11 13.09 20 км ясно +25.6 +11.9 42 1029.2 1019.0
12 13.09 20 км ясно +26.5 +11.2 38 1028.5 1018.4
13 13.09 20 км ясно +26.9 +11.3 38 1027.9 1017.8
14 13.09 20 км ясно +27.5 +10.9 35 1026.9 1016.8
15 13.09 20 км ясно +27.4 +10.7 35 1026.7 1016.6
16 13.09 С 4 20 км ясно +26.7 +10.8 37 +28 +28 жарко 1026.6 1016.5
17 13.09 СЗ 2 20 км ясно +24.2 +12.0 46 +26 +26 жарко 1026.7 1016.5
18 13.09 СЗ 2 20 км ясно +21.2 +11.8 55 +23 +23 комфорт 1027.3 1017.0 +27.8
19 13.09 СЗ 3 20 км ясно +19.4 +12.4 64 +21 +21 комфорт 1027.7 1017.3
20 13.09 З 2 20 км ясно +17.1 +12.2 73 +17 +17 1028.3 1017.8
21 13.09 ЮЗ 2 20 км ясно +17.2 +12.5 74 +18 +18 1028.3 1017.8
22 13.09 ЮЗ 40 20 км ясно +16.0 +11.7 76 +12 +12 1028.3 1017.8
23 13.09 ЮЗ 2 20 км ясно +15.8 +12.2 79 +16 +16 1028.4 1017.9
00 14.09 ЮЗ 2 20 км ясно +15.0 +12.3 84 +15 +15 1028.5 1017.9
01 14.09 ЮЗ 3 20 км 1/0
[Ac trans]
+14.5 +12.3 87 +14 +14 1028.2 1017.6
02 14.09 ЮЗ 2 20 км ясно +14.4 +12.3 87 +14 +14 1027.8 1017.2
03 14.09 З 2 20 км ясно +14.2 +12.8 91 +14 +14 1027.8 1017.2
04 14.09 З 2 20 км ясно +14.3 +12.9 91 +14 +14 1027.8 1017.2
05 14.09 З 2 20 км 3/0
[Ac trans]
+14.6 +12.7 88 +14 +14 1027.9 1017.3
06 14.09 З 2 20 км 4/0
[Ac trans]
+17.4 +13.8 79 +18 +19 1028.2 1017.7 +13.9
07 14.09 З 2 20 км ясно +18.8 +15.1 79 +20 +24 1028.1 1017.7
08 14.09 З 2 20 км ясно +21.1 +15.1 69 +24 +31 комфорт 1028.1 1017.7
09 14.09 СЗ 3 20 км ясно +23.1 +15.1 61 +27 +35 душно 1028.0 1017.7
10 14.09 СЗ 3 20 км 1/1 1000 м
[Cu hum]
+24.4 +15.2 56 +27 +36 жарко 1027.6 1017.4
11 14.09 СВ 4 20 км 4/4 1000 м
[Cu hum]
+26.6 +13.4 44 +29 +33 жарко 1027.3 1017.1
12 14.09 В 4 20 км 5/5 1000 м
[Cu hum]
+27.5 +12.3 39 +29 +32 жарко 1026.8 1016.7
13 14.09 С 4 20 км 5/5 1000 м
[Cu med, cong]
+26.9 +12.3 40 +28 +31 жарко 1026.2 1016.1
14 14.09 С 5 20 км 5/5 1000 м
[Cu med, cong]
+28.0 +11.9 37 +29 +30 жарко 1025.8 1015.7
15 14.09 С 4 20 км 6/6 1000 м
[Cu Sc]
+27.1 +12.2 40 +29 +29 жарко 1025.8 1015.7
16 14.09 С 4 20 км 6/5 1000 м
[Cu Sc Ci fib]
+25.9 +13.4 46 +28 +28 жарко 1025.8 1015.6
17 14.09 С 3 20 км 5/3 1000 м
[Cu Sc Ci fib]
+24.3 +12.8 49 +26 +26 жарко 1026.0 1015.8
18 14.09 С 3 20 км 3/0
[Ac trans Ci fib]
+21.2 +12.6 58 +23 +23 комфорт 1026.4 1016.1 +28.5
19 14.09 С 3 20 км 3/0
[Ci fib]
+19.2 +13.3 69 +21 +21 комфорт 1026.9 1016.5
20 14.09 С 2 20 км 3/0
[Ci fib]
+17.6 +12.6 72 +18 +18 1027.5 1017.0
21 14.09 штиль 0 20 км 1/0
[Ci fib]
+18.3 +13.9 76 +19 +19 1027.5 1017.1
22 14.09 Ю 1 20 км 5/0
[Ac trans]
+17.2 +13.9 81 +18 +18 1027.7 1017.2
23 14.09 СЗ 2 20 км ясно +15.5 +12.8 84 +15 +15 1027.9 1017.3
00 15.09 С 3 20 км 1/0
[Ac trans]
+14.4 +12.0 85 +13 +13 1027.9 1017.3
01 15.09 СЗ 1 20 км 3/0
[Ac trans]
+14.0 +11.9 87 +14 +14 1027.9 1017.3
02 15.09 СЗ 1 20 км 3/0
[Ac trans]
+12.7 +11.5 92 +13 +13 1028.0 1017.3
03 15.09 З 1 20 км ясно +12.7 +11.1 90 +13 +13 1027.9 1017.2
04 15.09 С 1 20 км ясно +11.4 +9.6 89 +11 +11 1027.8 1017.1
05 15.09 штиль 0 20 км ясно +11.4 +9.7 89 +11 +11 1027.9 1017.2
06 15.09 штиль 0 20 км 1/0
[Ac trans]
+13.6 +10.0 79 +13 +15 1027.8 1017.2 +11.2
07 15.09 ЮВ 1 20 км 1/0
[Ac trans]
+17.6 +8.6 56 +19 +23 1028.1 1017.6
08 15.09 С 1 20 км 3/0
[Ac trans]
+21.0 +10.4 51 +24 +31 комфорт 1028.0 1017.6
09 15.09 З 2 20 км 5/0
[Ac trans]
+22.4 +10.5 47 +24 +31 комфорт 1027.8 1017.5
10 15.09 СЗ 3 20 км 3/3 1000 м
[Cu hum]
+24.1 +10.9 43 +25 +32 комфорт 1027.4 1017.2
11 15.09 СЗ 2 20 км 1/1 1000 м
[Cu hum]
+25.4 +10.0 38 +26 +36 жарко 1026.8 1016.6
12 15.09 ЮЗ 2 20 км 1/1 1000 м
[Cu hum]
+27.2 +10.6 35 +28 +37 жарко 1025.6 1015.5
13 15.09 З 2 20 км ясно +27.0 +9.4 33 +27 +35 жарко 1024.7 1014.6
14 15.09 ЮВ 1 20 км ясно +27.5 +9.9 33 +28 +34 жарко 1023.8 1013.7
15 15.09 З 1 20 км ясно +27.5 +10.4 34 +28 +31 жарко 1023.3 1013.2
16 15.09 ЮЗ 1 20 км ясно +26.9 +10.6 36 +28 +28 жарко 1022.8 1012.7
17 15.09 СЗ 1 20 км ясно +24.4 +10.9 43 +26 +26 жарко 1022.7 1012.5
18 15.09 С 1 20 км ясно +21.4 +12.1 55 +24 +24 комфорт 1022.5 1012.2 +28.1
19 15.09 Ю 1 20 км ясно +19.6 +10.9 57 +22 +22 комфорт 1022.6 1012.2
20 15.09 штиль 0 20 км ясно +17.2 +12.5 74 +17 +17 1022.5 1012.1
21 15.09 З 1 20 км ясно +15.6 +12.0 79 +16 +16 1022.4 1011.9
22 15.09 ЮЗ 2 20 км ясно +15.0 +12.4 84 +15 +15 1022.2 1011.7
23 15.09 ЮЗ 1 20 км ясно +14.2 +12.1 87 +15 +15 1022.0 1011.5
00 16.09 штиль 0 20 км ясно +14.0 +12.6 91 +14 +14 1021.5 1011.0
01 16.09 ЮВ 1 20 км ясно +13.5 +12.5 94 +14 +14 1021.3 1010.7
02 16.09 В 1 20 км ясно +12.7 +11.8 94 +13 +13 1021.1 1010.5
03 16.09 В 1 20 км ясно +12.4 +11.5 94 +12 +12 1020.9 1010.3
04 16.09 ЮВ 1 20 км ясно +12.2 +11.5 95 +12 +12 1020.4 1009.8
05 16.09 20 км ясно +12.4 +11.7 95 1020.4 1009.8
06 16.09 З 1 20 км ясно +15.1 +12.5 84 +16 +17 1020.1 1009.6 +11.9
07 16.09 З 4 20 км ясно +19.2 +13.6 70 +20 +23 1020.3 1010.0
08 16.09 З 2 20 км ясно +22.8 +14.0 58 +26 +33 жарко 1020.1 1009.9
09 16.09 ЮЗ 3 20 км ясно +26.0 +13.2 45 +28 +36 жарко 1019.6 1009.5
10 16.09 З 3 20 км ясно +26.8 +13.1 43 +29 +38 жарко 1019.3 1009.2
11 16.09 Ю 3 20 км ясно +28.2 +12.5 38 +30 +39 жарко 1018.7 1008.7
12 16.09 20 км ясно +28.6 +12.8 38 1018.0 1008.0
13 16.09 20 км ясно +29.2 +13.5 38 1017.5 1007.5
14 16.09 20 км ясно +29.8 +12.6 35 1016.5 1006.6
15 16.09 20 км ясно +29.2 +12.6 36 1016.1 1006.1
16 16.09 20 км 1/0
[Ci sp]
+28.6 +12.2 36 1015.8 1005.8
17 16.09 20 км 1/0
[Ac trans]
+25.4 +12.4 44 1015.7 1005.6
18 16.09 З 3 20 км 1/0
[Ac trans]
+23.0 +11.3 48 +25 +25 комфорт 1016.2 1006.0 +29.8
19 16.09 ЮЗ 4 20 км ясно +22.6 +12.8 54 +25 +25 комфорт 1016.2 1006.0
20 16.09 ЮЗ 3 20 км ясно +20.2 +12.6 62 +22 +22 комфорт 1016.3 1006.0
21 16.09 Ю 3 20 км ясно +20.0 +12.4 62 +22 +22 комфорт 1016.3 1006.0
22 16.09 ЮЗ 3 20 км ясно +18.5 +11.9 65 +19 +19 1016.1 1005.8
23 16.09 Ю 1 20 км ясно +18.6 +12.6 68 +20 +20 1015.7 1005.4
00 17.09 20 км ясно +15.9 +11.8 77 1015.5 1005.1
01 17.09 20 км ясно +15.8 +12.8 82 1015.0 1004.6
02 17.09 20 км 3/0
[Ac trans]
+15.2 +12.1 82 1014.8 1004.4
03 17.09 20 км 4/0
[Ac trans]
+14.6 +11.8 83 1014.8 1004.3
04 17.09 20 км 4/0
[Ac trans]
+13.8 +12.1 89 1015.0 1004.5
05 17.09 20 км 3/0
[Ac trans]
+14.3 +11.9 85 1015.3 1004.8
06 17.09 20 км 3/0
[Ac trans Ci fib]
+18.6 +15.1 80 1014.9 1004.6 +13.8
07 17.09 20 км 4/0
[Ac trans Ci fib]
+21.6 +15.3 67 1015.3 1005.1
08 17.09 20 км 4/0
[Ac trans Ci sp]
+23.9 +14.8 57 1015.2 1005.1
09 17.09 20 км 4/0
[Ac trans Ci sp]
+26.6 +14.4 47 1015.1 1005.1
10 17.09 20 км 3/0
[Ci sp]
+27.7 +15.4 47 1015.1 1005.1
11 17.09 20 км 4/1 1000 м
[Cu hum Ci sp]
+28.8 +11.7 35 1014.6 1004.6
12 17.09 20 км 5/3 1000 м
[Cu hum Ci sp]
+29.7 +13.1 36 1013.8 1003.9
13 17.09 20 км 5/3 1000 м
[Cu hum Ci sp]
+29.2 +13.5 38 1013.0 1003.1
14 17.09 20 км 4/3 1000 м
[Cu hum Ci fib]
+29.4 +13.4 37 1012.5 1002.6
15 17.09 20 км 1/0
[Ac trans]
+29.2 +13.5 38 1012.5 1002.6
16 17.09 20 км 1/0
[Ac trans]
+27.6 +13.2 41 1012.1 1002.1
17 17.09 20 км 4/0
[Ac trans]
+24.7 +13.0 48 1012.2 1002.1
18 17.09 20 км 5/5 1000 м
[Sc]
+22.8 +13.8 57 1013.1 1003.0 +29.7
19 17.09 20 км 4/4 1000 м
[Sc]
+21.2 +13.4 61 1013.6 1003.4
20 17.09 20 км 8/8 1000 м
[Sc]
+19.8 +13.6 67 1013.7 1003.4
21 17.09 20 км 3/3 1000 м
[Sc]
+19.0 +13.1 69 1013.7 1003.4
22 17.09 20 км 9/9 1000 м
[Sc]
+18.4 +13.5 73 1013.7 1003.4
23 17.09 20 км 9/9 1000 м
[Sc]
+16.4 +12.3 77 1014.5 1004.1
00 18.09 20 км 10/10 1000 м
[Sc]
+18.3 +13.2 72 1015.1 1004.8
01 18.09 10 км слаб. дождь 10/10 1000 м
[Sc]
+18.0 +15.4 85 1015.8 1005.5
02 18.09 10 км слаб. дождь 10/10 1000 м
[Sc]
+17.7 +15.1 85 1016.5 1006.1
03 18.09 15 км слаб. дождь 10/10 1000 м
[Sc]
+16.1 +15.8 98 1017.2 1006.8
04 18.09 10 км дождь 10/0
[As op]
+15.9 +15.6 98 1018.4 1008.0
05 18.09 10 км слаб. дождь 10/0
[As op]
+14.6 +13.9 96 1019.3 1008.8
06 18.09 18 км слаб. дождь 10/10 1000 м
[Cu Sc]
+14.8 +13.8 94 1020.0 1009.5 +14.6 4
07 18.09 15 км в посл. час дождь 10/10 1000 м
[Cu Sc]
+15.2 +11.4 78 1021.5 1011.0
08 18.09 20 км 10/10 1000 м
[Sc]
+15.0 +11.5 80 1022.1 1011.6
09 18.09 20 км 10/10 1000 м
[Sc]
+14.7 +9.9 73 1022.7 1012.2
10 18.09 20 км 9/9 1000 м
[Sc]
+14.9 +8.9 67 1022.9 1012.4
11 18.09 20 км 9/9 1000 м
[Sc]
+15.4 +6.0 53 1022.9 1012.4
12 18.09 20 км 8/8 1000 м
[Sc]
+15.8 +6.3 53 1022.9 1012.4
13 18.09 20 км 9/9 1000 м
[Sc]
+15.6 +7.0 57 1022.9 1012.4
14 18.09 20 км 9/9 1000 м
[Sc]
+15.5 +7.5 59 1022.7 1012.2
15 18.09 20 км 9/9 1000 м
[Sc]
+15.3 +7.7 60 1022.7 1012.2
16 18.09 20 км 9/9 1000 м
[Sc]
+14.8 +8.6 66 1022.7 1012.2
17 18.09 20 км 9/9 1000 м
[Sc]
+14.2 +10.1 76 1022.7 1012.2
18 18.09 20 км 9/9 1000 м
[Sc]
+13.8 +10.2 79 1023.0 1012.4 +16.1
19 18.09 20 км 9/9 1000 м
[Sc]
+13.4 +10.2 81 1023.3 1012.7
20 18.09 20 км 8/8 1000 м
[Sc]
+13.1 +11.0 87 1023.5 1012.9
21 18.09 20 км 5/5 1000 м
[Sc]
+12.5 +10.5 88 1023.5 1012.9
22 18.09 20 км 4/4 1000 м
[Sc]
+11.2 +9.5 89 1023.6 1012.9
23 18.09 20 км 3/3 1000 м
[Sc]
+10.4 +8.5 88 1023.4 1012.7
00 19.09 20 км 3/3 1000 м
[Sc]
+9.9 +8.6 92 1023.4 1012.7
01 19.09 20 км 1/1 1000 м
[Sc]
+9.8 +8.7 93 1023.2 1012.5
02 19.09 20 км ясно +8.8 +7.4 91 1023.3 1012.5
03 19.09 20 км 4/0
[Ac trans]
+7.8 +7.0 95 1023.3 1012.5
04 19.09 20 км 4/0
[Ac trans]
+7.6 +6.8 95 1023.3 1012.5
05 19.09 20 км 5/0
[Ac trans]
+9.2 +7.6 90 1024.1 1013.4
06 19.09 20 км 8/8 1000 м
[Sc]
+10.6 +8.7 88 1024.3 1013.6 +7.4
07 19.09 20 км 8/8 1000 м
[Sc]
+12.6 +7.7 72 1024.5 1013.9
08 19.09 20 км 10/10 1000 м
[Sc]
+14.6 +6.8 59 1024.7 1014.1
09 19.09 20 км 9/9 1000 м
[Sc]
+16.3 +5.1 47 1024.9 1014.4
10 19.09 20 км 9/9 1000 м
[Sc]
+17.1 +5.2 45 1024.8 1014.3
11 19.09 20 км 9/9 1000 м
[Sc]
+17.6 +3.3 38 1024.4 1014.0
12 19.09 20 км 8/8 1000 м
[Sc]
+18.7 +3.9 37 1023.5 1013.1
13 19.09 20 км 8/5 1000 м
[Sc Ac trans]
+19.4 +4.1 36 1023.5 1013.1
14 19.09 20 км 8/4 1000 м
[Sc Ac trans]
+18.2 +4.2 39 1023.1 1012.7
15 19.09 20 км 6/3 1000 м
[Sc Ac trans]
+18.4 +4.2 39 1022.8 1012.4
16 19.09 20 км 6/3 1000 м
[Sc Ci fib]
+18.2 +3.9 39 1023.1 1012.7
17 19.09 20 км 4/3 1000 м
[Sc Ci fib]
+15.7 +3.5 44 1023.8 1013.3
18 19.09 20 км 1/0
[Ci fib]
+13.6 +4.4 54 1024.4 1013.8 +20.0
19 19.09 20 км ясно +12.6 +4.1 56 1024.7 1014.1
20 19.09 20 км 1/0
[Ac trans]
+11.0 +4.5 64 1025.2 1014.5
21 19.09 20 км ясно +10.2 +4.5 68 1025.4 1014.7
22 19.09 20 км ясно +9.3 +4.3 71 1025.7 1014.9
23 19.09 20 км ясно +8.4 +3.8 73 1025.9 1015.1
00 20.09 20 км ясно +6.3 +3.5 82 1026.1 1015.2
01 20.09 20 км ясно +5.0 +3.5 90 1026.1 1015.2
02 20.09 20 км ясно +4.8 +3.5 91 1026.1 1015.2
03 20.09 20 км ясно +5.2 +3.9 91 1026.1 1015.2
04 20.09 20 км ясно +5.6 +3.9 89 1026.3 1015.4
05 20.09 20 км 1/0
[Ci fib]
+5.4 +3.9 90 1026.4 1015.5
06 20.09 20 км 1/0
[Ci fib]
+7.4 +4.5 82 1027.0 1016.2 +4.7
07 20.09 20 км 1/0
[Ci fib]
+9.2 +4.4 72 1027.7 1016.9

 

Местоположение метеостанции Нови-Сад (Сербия): широта 45.33 долгота 19.85 высота над уровнем моря 87 м.

В архиве по умолчанию представлена погода в Нови-Саде за последнюю неделю. Архивные данные за месяц целиком и за предыдущие месяцы, начиная с января 2011 года, Вы можете получить, выбрав интересующий диапазон дат из раскрывающегося списка и нажав кнопку "Ввод!".


*Определитесь, кто Вы:
робот инопланетянин человек

Внимание! Время в таблицах - всемирное. Для получения местного времени необходимо прибавить поправку, которая равна 1 ч.

Смотрите также архив погоды в соседних городах и на ближайших метеорологических станциях:

Погода в Сремска-Митровице (Сербия) (35 км)
Погода в Зренянине (Сербия) (45 км)
Погода в Белград аэропорту (Сербия) (66 км)
Погода в Сомборе (Сербия) (73 км)
Погода в Кикинде (Сербия) (75 км)
Погода в Белграде (Сербия) (76 км)
Погода в Осиек аэропорту (Хорватия) (82 км)
Погода в Жимболии (Румыния) (83 км)
Погода в Паличе (Сербия) (86 км)
Погода в Градиште (Хорватия) (92 км)

Пояснения к столбцам:

Ветер - указаны скорость ветра в м/с - средняя за 10 мин, порывы в срок и между сроками (в фигурных скобках) и направление, откуда дует ветер: С - северный, СВ - северо-восточный, В - восточный, ЮВ - юго-восточный, Ю - южный, ЮЗ - юго-западный, З - западный, СЗ - северо-западный.
Видимость - горизонтальная дальность видимости в метрах или километрах. При видимости от 1 до 10 км при отсутствии осадков обычно наблюдается дымка, при ухудшении видимости до 1 км и менее - туман. В сухую погоду видимость может ухудшаться дымом, пылью или мглою.
Явления - указаны атмосферные явления, наблюдавшиеся в срок или в последний час перед сроком; фигурными скобками обозначены явления, наблюдавшиеся между сроками (за 1-3 часа до срока); квадратными скобками обозначены град или гололедные отложения с указанием их диаметра в мм.
Облачность - указаны через наклонную черту общая и нижняя облачность в баллах и высота нижней границы облаков в метрах; квадратными скобками обозначены формы облаков: Ci - перистые, Cs - перисто-слоистые, Cc - перисто-кучевые, Ac - высококучевые, As - высокослоистые, Sc - слоисто-кучевые, Ns - слоисто-дождевые, Cu - кучевые, Cb - кучево-дождевые. Подробнее классификацию облаков см. в Атласе облаков (PDF).
T - Температура воздуха - температура, измеренная на высоте 2 м над землей.
Td - Температура точки росы - температура, при понижении до которой содержащийся в воздухе водяной пар достигнет насыщения.
f - Относительная влажность воздуха - влажноcть воздуха, измеренная на высоте 2 м над землей.
Te - Эффективная температура - температура, которую ощущает одетый по сезону человек в тени. Характеристика душности погоды. При расчете учитывается влияние влажности воздуха и скорости ветра на теплоощущения человека.
Tes - Эффективная температура на солнце - температура, которую ощущает человек, с поправкой на солнечный нагрев. Характеристика знойности погоды. Зависит от высоты солнца над горизонтом, облачности и скорости ветра. Ночью, в пасмурную погоду, а также при ветре 12 м/с и более поправка равна нулю.
P - Атмосферное давление - приведенное к уровню моря атмосферное давление.
Po - Атмосферное давление - измеренное на уровне метеостанции атмосферное давление.
Tmin - Минимальная температура - минимум температуры воздуха на высоте 2 м над землей.
Tmax - Максимальная температура - максимум температуры воздуха на высоте 2 м над землей.
R - Количество осадков - Количество выпавших осадков за период времени, мм. При наведении курсора мыши на число - период времени, за который выпало указанное количество осадков.
R24 - Количество осадков - Количество выпавших осадков за 24 часа, мм.
S - Снежный покров - Высота снежного покрова, см. При наведении курсора мыши на число - состояние снежного покрова и степень покрытия местности в баллах.